Regional Weather Roundup
Issued by NWS

Home | Current Version | Previous Version | Graphics & Text | Print | Product List | Glossary On
Versions: 1 2 3 4 5 6 7 8 9 10 11 12 13 14 15 16 17 18 19 20 21 22 23 24 25 26 27 28 29 30 31 32 33 34 35 36 37 38 39 40 41 42 43 44 45 46 47 48 49 50
000
ASUS45 KSLC 311510
RWRUT

UTAH REGIONAL WEATHER ROUNDUP
NATIONAL WEATHER SERVICE SALT LAKE CITY UT
800 AM MST SAT JAN 31 2015

UTZ001>011-023>025-311600-

NORTHERN UTAH

CITY           SKY/WX    TMP DP  RH WIND       PRES   REMARKS
BRIGHAM CITY   MOCLDY    34  27  75 N5        30.01S WCI  30
HILL AFB       PTCLDY    33  27  80 NW2       30.00R
LOGAN          CLOUDY    32  29  88 SE5       30.04F WCI  27
OGDEN          PTCLDY    32  28  85 CALM      30.00R
PROVO AIRPORT  PTCLDY    36  34  93 CALM      29.98R
SALT LAKE CITY MOCLDY    35  29  78 NW8       30.01R WCI  29
VERNAL         CLOUDY    35  34  96 CALM      29.94R
WENDOVER       PTCLDY    36  23  60 E6        30.04R WCI  31
HEBER CITY     CLOUDY    34  30  86 E5        29.97S WCI  30
WEST JORDAN    MOCLDY    36  34  93 NW16      30.00R WCI  26

$$

UTZ012>022-026-027-311600-

SOUTHERN/CENTRAL UTAH

CITY           SKY/WX    TMP DP  RH WIND       PRES   REMARKS
BLANDING       CLOUDY    32  32 100 CALM      29.98S
BRYCE CANYON   CLOUDY    30  28  92 W6        29.94R WCI  24
CEDAR CITY     CLOUDY    35  33  92 N6        29.94R WCI  30
DELTA          CLOUDY    36  35  96 NW6       29.98R WCI  31
HANKSVILLE     CLOUDY    37  36  93 CALM      29.96R
MILFORD        LGT RAIN  35  33  92 N15       29.97R WCI  25
MOAB/CYNLANDS  CLOUDY    39  37  92 CALM      29.91R
PRICE          FOG       33  32  96 N6        29.91R VSB<1/4 WCI  28
ST GEORGE      CLOUDY    46  41  81 CALM      29.93R

$$

REGIONAL REPORTS     COLORADO/ARIZONA

CITY           SKY/WX    TMP DP  RH WIND       PRES   REMARKS
CRAIG, CO      LGT SNOW  32  30  92 SW10      29.92R FOG     WCI  24
GRAND JUNCTION CLOUDY    37  37 100 CALM      29.91R
RIFLE          LGT SNOW  33  32  96 S3        29.91R FOG
MONTROSE       LGT RAIN  36  35  96 N5        29.92R WCI  32
CORTEZ         CLOUDY    33  33 100 NW3       29.91R
PAGE, AZ       NOT AVBL
GRAND CANYON   MOCLDY    36  35  96 CALM      29.91R
KINGMAN        CLOUDY    45  44  97 NE5       29.88R
FLAGSTAFF      CLOUDY    33  31  92 CALM      29.90R FOG

$$

REGIONAL REPORTS    NEVADA/IDAHO/WYOMING

CITY           SKY/WX    TMP DP  RH WIND       PRES   REMARKS
LAS VEGAS, NV  CLOUDY    50  46  86 S8        29.86R
ELY            CLOUDY    31  29  92 N12       30.04R WCI  22
ELKO           CLEAR     23  19  85 CALM      30.10R
POCATELLO, ID  CLOUDY    31  30  96 SW12      30.11R WCI  22
BURLEY         CLOUDY    33  28  81 SW6       30.10S WCI  28
EVANSTON, WY   CLOUDY    29  25  85 CALM      29.99R
ROCK SPRINGS   PTCLDY    25  23  92 W9        29.95R WCI  15
KEMMERER       PTCLDY    25  23  93 SW8       29.98F WCI  16

$$



USA.gov is the U.S. government's official web portal to all federal, state and local government web resources and services.